Location: LDNL
(36.4545°S, 141.6685°E)
Time: 14:45:53
(UTC+10:00)

Hubble Space Telescope - Pass Details

Date: 02 July 2022
Orbit: 532 x 535 km, 28.5° (Epoch: 10 August)

Event Time Altitude Azimuth Distance (km) Brightness Sun altitude
Exits shadow 05:13:13 20° 35° (NE) 1,287 3.1 -29.9°
Drops below altitude 10° 05:14:58 10° 55° (NE) 1,788 4.2 -29.5°
Sets 05:17:28 0° 67° (ENE) 2,678 5.5 -29.0°
